Content
SEND FEEDBACK

Daily
Averages
Monthly
Summary
Samoa

APIA, SAMOA


Home > Oceania > Samoa
Elevation: 7 feet     Latitude: 13 48S     Longitude: 171 47W

WEATHER
 
SELECT A DAY
Number of Records: 121,989;   Date Range: 6/30/96 - 8/30/14
 
SHARE

PRINT THIS DATA

[ ← Previous Day ]
WEATHER ALMANAC - JANUARY 31, 2013
[ Next Day → ]
[ °C ]   °F
Weather ElementAverageHighLow
Temperature80.5 °F82.4 °F (10:00 am)77 °F (8:00 am)
Dewpoint77 °F78.8 °F (9:00 am)73.4 °F (2:00 am)
Humidity88.5 %94 % (8:00 am)83 % (2:00 am)
Barometer29.83 in29.88 in (11:00 am)29.77 in (6:00 pm)
Wind Speed8.7 mph17.3 mph (11:00 am)
Weather ElementAverage
Visibility14.8 mi
Wind DirectionESE (122.7 °)

Weather ElementTotal
Precipitation---
Cooling Degree Days14.7 (Base 65)
Growing Degree Days29.7 (Base 50)
Averaged from 26 records on January 31, 2013
WEATHER CONDITIONS BREAKOUT
WIND DIRECTION BREAKOUT
WEATHER BY HOUR - JANUARY 31, 2013
[ °C ]   °F
Local TimeTemperatureDewpointHumidityBarometerVisibilityWind DirectionWind SpeedGust SpeedPrecipitationEventsConditions
1:00 AM80.6 °F75.2 °F84 %29.83 in6.2 miENE (70°)9.2 mphDrizzle
2:00 AM80.0 °F78.0 °F91 %29.84 in2.0 miCalm (310°)Overcast
2:00 AM78.8 °F73.4 °F83 %29.83 in6.2 miSSE (150°)4.6 mphOvercast
3:00 AM78.8 °F75.2 °F89 %29.80 in12.4 miSE (140°)3.5 mphOvercast
4:00 AM78.8 °F75.2 °F89 %29.80 in12.4 miNE (50°)12.7 mphOvercast
5:00 AM78.0 °F75.0 °F87 %29.81 in12.0 miNE (40°)9.2 mphOvercast
6:00 AM78.8 °F75.2 °F89 %29.80 in12.4 miEast (80°)4.6 mphOvercast
7:00 AM78.8 °F75.2 °F89 %29.80 in15.5 miNE (40°)10.4 mphPartly Cloudy
8:00 AM78.0 °F76.0 °F91 %29.83 in12.0 miNNE (30°)10.4 mphRainLight Rain
8:00 AM77.0 °F75.2 °F94 %29.83 inNNE (30°)10.4 mphRainRain
9:00 AM80.6 °F78.8 °F94 %29.83 in15.5 miNE (50°)9.2 mphDrizzle
10:00 AM82.4 °F78.8 °F89 %29.86 in18.6 miENE (70°)4.6 mphOvercast
11:00 AM82.4 °F78.8 °F89 %29.86 in18.6 miNE (50°)17.3 mphRainLight Rain Showers
11:00 AM82.0 °F78.0 °F86 %29.88 in12.0 miNorth (350°)17.3 mphRainLight Rain
12:00 PM80.6 °F78.8 °F94 %29.86 in18.6 miNorth (350°)17.3 mphDrizzle
1:00 PM80.6 °F77.0 °F89 %29.86 in18.6 miNorth (360°)9.2 mphDrizzle
2:00 PM80.0 °F78.0 °F91 %29.85 in12.0 miNE (50°)4.6 mphRainLight Drizzle
2:00 PM80.6 °F77.0 °F89 %29.83 in18.6 miNE (50°)4.6 mphDrizzle
6:00 PM82.4 °F78.8 °F89 %29.77 in21.8 miNorth (360°)15.0 mphOvercast
7:00 PM82.4 °F77.0 °F84 %29.80 in21.8 miNorth (350°)12.7 mphOvercast
8:00 PM82.0 °F78.0 °F85 %29.82 in12.0 miNNE (20°)5.8 mphOvercast
8:00 PM82.4 °F78.8 °F89 %29.80 in21.8 miNNE (20°)5.8 mphOvercast
9:00 PM82.4 °F78.8 °F89 %29.83 in18.6 miENE (60°)8.1 mphMostly Cloudy
10:00 PM82.4 °F77.0 °F84 %29.83 in18.6 miENE (70°)4.6 mphMostly Cloudy
11:00 PM81.0 °F77.0 °F85 %29.88 in12.0 miNNE (20°)8.1 mphRain-ThunderstormHeavy Thunderstorms and Rain
11:00 PM80.6 °F77.0 °F89 %29.86 in18.6 miNNE (20°)8.1 mphThunderstormHeavy Thunderstorm
Hourly data recorded from NSFI, located miles away from Apia, Samoa







STORIES FROM OUR PARTNERS